Weather History for Grosse Ile, MI

Change the Weather History Date:

Friday, February 14, 2014

  Actual Average (KDTW) Record (KDTW)
Temperature  
Mean Temperature 24 °F 28 °F  
Max Temperature 30 °F 35 °F 57 °F (1918)
Min Temperature 19 °F 21 °F -15 °F (1905)
Degree Days  
Heating Degree Days 40 37  
Month to date heating degree days 536  
Since 1 July heating degree days 4056  
Cooling Degree Days 0 0  
Month to date cooling degree days 0  
Year to date cooling degree days 0  
Moisture  
Dew Point 19 °F    
Average Humidity 78    
Maximum Humidity 93    
Minimum Humidity 64    
Precipitation  
Precipitation 0.00 in 0.07 in 1.92 in (1950)
Month to date precipitation 0.96  
Year to date precipitation 2.92  
Snow  
Snow 0.00 in 0.30 in 5.40 in (1991)
Month to date snowfall 5.1  
Since 1 July snowfall 28.8  
Snow Depth -    
Sea Level Pressure  
Sea Level Pressure 29.59 in    
Wind  
Wind Speed 6 mph (West)    
Max Wind Speed 16 mph    
Max Gust Speed 24 mph    
Visibility 7 miles    
Events Snow    
T = Trace of Precipitation, MM = Missing Value Source: NWS Daily Summary

Daily Weather History Graph

Daily Weather History Graph

Search for Another Location

Airport:

Trip Planner

Search our weather history database for the weather conditions in past years. The results will help you decide how hot, cold, wet, or windy it might be!

Date:

Astronomy

Feb. 14, 2014 Rise Set
Actual Time 7:30 AM EST 6:04 PM EST
Civil Twilight 7:01 AM EST 6:32 PM EST
Nautical Twilight 6:28 AM EST 7:05 PM EST
Astronomical Twilight 5:56 AM EST 7:38 PM EST
Moon 6:07 PM EST (2/14) 6:55 AM EST (2/14)
Length of Visible Light 11h 31m
Length of Day
10h 34m
Full, 100% of the Moon is Illuminated
Feb 14
Full
Feb 14
Full
Feb 22
Last Quarter
Mar 1
New
Mar 8
First Quarter

Hourly Weather History & Observations

Time (EST) Temp. Windchill Dew Point Humidity Pressure Visibility Wind Dir Wind Speed Gust Speed Precip Events Conditions
12:14 AM 19.4 °F 14.3 °F 15.8 °F 86% 29.51 in 10.0 mi SE 3.5 mph - N/A   Overcast
12:34 AM 19.4 °F 11.5 °F 15.8 °F 86% 29.49 in 10.0 mi SSE 5.8 mph - N/A   Overcast
12:54 AM 19.4 °F 12.8 °F 15.8 °F 86% 29.49 in 10.0 mi SE 4.6 mph - N/A   Overcast
1:14 AM 19.4 °F - 15.8 °F 86% 29.48 in 10.0 mi Calm Calm - N/A   Overcast
1:34 AM 19.4 °F 14.3 °F 15.8 °F 86% 29.47 in 10.0 mi South 3.5 mph - N/A   Overcast
1:55 AM 19.4 °F - 15.8 °F 86% 29.46 in 10.0 mi Calm Calm - N/A   Overcast
2:14 AM 19.4 °F - 15.8 °F 86% 29.45 in 10.0 mi Calm Calm - N/A   Overcast
2:34 AM 21.2 °F - 17.6 °F 86% 29.44 in 10.0 mi Calm Calm - N/A   Overcast
2:54 AM 21.2 °F - 17.6 °F 86% 29.44 in 10.0 mi Calm Calm - N/A   Overcast
3:14 AM 21.2 °F - 17.6 °F 86% 29.44 in 4.0 mi Calm Calm - N/A Snow Light Snow
3:34 AM 21.2 °F - 17.6 °F 86% 29.43 in 7.0 mi Calm Calm - N/A Snow Light Snow
3:54 AM 21.2 °F - 19.4 °F 93% 29.43 in 5.0 mi Calm Calm - N/A Snow Light Snow
4:14 AM 21.2 °F - 19.4 °F 93% 29.44 in 4.0 mi Calm Calm - N/A Snow Light Snow
4:34 AM 21.2 °F - 19.4 °F 93% 29.44 in 3.0 mi Calm Calm - N/A Snow Light Snow
4:54 AM 21.2 °F 14.9 °F 19.4 °F 93% 29.45 in 3.0 mi West 4.6 mph - N/A Snow Light Snow
5:14 AM 21.2 °F 14.9 °F 19.4 °F 93% 29.46 in 5.0 mi West 4.6 mph - N/A Snow Light Snow
5:34 AM 23.0 °F 14.7 °F 19.4 °F 86% 29.47 in 4.0 mi West 6.9 mph - N/A Snow Light Snow
5:54 AM 23.0 °F 15.8 °F 19.4 °F 86% 29.47 in 5.0 mi West 5.8 mph - N/A Snow Light Snow
6:14 AM 23.0 °F 17.0 °F 19.4 °F 86% 29.48 in 5.0 mi West 4.6 mph - N/A Snow Light Snow
6:34 AM 23.0 °F 15.8 °F 19.4 °F 86% 29.48 in 7.0 mi West 5.8 mph - N/A Snow Light Snow
6:54 AM 24.8 °F 19.1 °F 19.4 °F 80% 29.49 in 5.0 mi West 4.6 mph - N/A Snow Light Snow
7:14 AM 24.8 °F 17.9 °F 19.4 °F 80% 29.50 in 5.0 mi West 5.8 mph - N/A Snow Light Snow
7:34 AM 24.8 °F 16.9 °F 21.2 °F 86% 29.51 in 5.0 mi West 6.9 mph - N/A   Overcast
7:54 AM 26.6 °F 19.1 °F 23.0 °F 86% 29.52 in 4.0 mi West 6.9 mph - N/A Snow Light Snow
8:15 AM 26.6 °F 19.1 °F 23.0 °F 86% 29.53 in 4.0 mi West 6.9 mph - N/A   Overcast
8:34 AM 26.6 °F 20.0 °F 24.8 °F 93% 29.54 in 2.5 mi WSW 5.8 mph - N/A Snow Light Snow
8:54 AM 28.4 °F 21.2 °F 24.8 °F 86% 29.54 in 2.0 mi WSW 6.9 mph - N/A Snow Light Snow
9:14 AM 28.4 °F 19.7 °F 24.8 °F 86% 29.55 in 2.5 mi West 9.2 mph - N/A Snow Light Snow
9:34 AM 28.4 °F 18.5 °F 24.8 °F 86% 29.56 in 2.0 mi WSW 11.5 mph - N/A Snow Light Snow
9:55 AM 28.4 °F 18.5 °F 24.8 °F 86% 29.57 in 2.0 mi West 11.5 mph - N/A Snow Light Snow
10:14 AM 28.4 °F 18.0 °F 24.8 °F 86% 29.58 in 2.5 mi WSW 12.7 mph 19.6 mph N/A Snow Light Snow
10:34 AM 28.4 °F 17.5 °F 23.0 °F 80% 29.59 in 4.0 mi WSW 13.8 mph 17.3 mph N/A Snow Light Snow
10:54 AM 28.4 °F 18.0 °F 23.0 °F 80% 29.59 in 5.0 mi WSW 12.7 mph 24.2 mph N/A Snow Light Snow
11:14 AM 30.2 °F 20.2 °F 23.0 °F 75% 29.61 in 5.0 mi WSW 12.7 mph 21.9 mph N/A Snow Light Snow
11:34 AM 28.4 °F 17.5 °F 21.2 °F 74% 29.61 in 5.0 mi West 13.8 mph - N/A Snow Light Snow
11:54 AM 28.4 °F 16.6 °F 21.2 °F 74% 29.61 in 4.0 mi WSW 16.1 mph 20.7 mph N/A Snow Light Snow
12:14 PM 28.4 °F 18.5 °F 21.2 °F 74% 29.62 in 3.0 mi WSW 11.5 mph 16.1 mph N/A Snow Light Snow
12:34 PM 28.4 °F 18.0 °F 21.2 °F 74% 29.62 in 4.0 mi WSW 12.7 mph 20.7 mph N/A Snow Light Snow
12:54 PM 28.4 °F 17.0 °F 21.2 °F 74% 29.62 in 5.0 mi WSW 15.0 mph 20.7 mph N/A   Haze
1:14 PM 28.4 °F 17.0 °F 21.2 °F 74% 29.62 in 5.0 mi WSW 15.0 mph 21.9 mph N/A Snow Light Snow
1:34 PM 28.4 °F 17.5 °F 19.4 °F 69% 29.62 in 7.0 mi SW 13.8 mph 17.3 mph N/A   Overcast
1:54 PM 28.4 °F 18.5 °F 19.4 °F 69% 29.63 in 7.0 mi WSW 11.5 mph 16.1 mph N/A   Overcast
2:14 PM 28.4 °F 18.0 °F 17.6 °F 64% 29.63 in 10.0 mi WSW 12.7 mph 18.4 mph N/A   Overcast
2:35 PM 28.4 °F 18.0 °F 17.6 °F 64% 29.63 in 10.0 mi WSW 12.7 mph 17.3 mph N/A   Overcast
2:54 PM 28.4 °F 17.5 °F 17.6 °F 64% 29.64 in 10.0 mi WSW 13.8 mph 19.6 mph N/A   Overcast
3:14 PM 28.4 °F 18.5 °F 19.4 °F 69% 29.63 in 10.0 mi WSW 11.5 mph 18.4 mph N/A   Overcast
3:34 PM 28.4 °F 19.7 °F 19.4 °F 69% 29.63 in 10.0 mi WSW 9.2 mph - N/A Snow Light Snow
3:54 PM 26.6 °F 17.5 °F 19.4 °F 74% 29.65 in 10.0 mi WSW 9.2 mph 16.1 mph N/A   Overcast
4:14 PM 26.6 °F 17.5 °F 19.4 °F 74% 29.66 in 7.0 mi SW 9.2 mph - N/A   Overcast
4:34 PM 26.6 °F 17.5 °F 19.4 °F 74% 29.66 in 7.0 mi SW 9.2 mph - N/A   Overcast
4:54 PM 26.6 °F 20.0 °F 19.4 °F 74% 29.66 in 7.0 mi SW 5.8 mph - N/A   Overcast
5:15 PM 26.6 °F 21.2 °F 19.4 °F 74% 29.67 in 10.0 mi SW 4.6 mph - N/A   Overcast
5:34 PM 26.6 °F 18.2 °F 15.8 °F 64% 29.68 in 10.0 mi West 8.1 mph - N/A   Overcast
5:54 PM 26.6 °F 22.6 °F 17.6 °F 69% 29.68 in 10.0 mi WSW 3.5 mph - N/A   Overcast
6:14 PM 26.6 °F 20.0 °F 17.6 °F 69% 29.69 in 10.0 mi WSW 5.8 mph - N/A   Overcast
6:34 PM 26.6 °F 17.5 °F 17.6 °F 69% 29.69 in 10.0 mi WNW 9.2 mph - N/A   Overcast
6:55 PM 26.6 °F 17.5 °F 15.8 °F 64% 29.71 in 10.0 mi WNW 9.2 mph - N/A   Overcast
7:14 PM 26.6 °F 18.2 °F 15.8 °F 64% 29.71 in 10.0 mi WNW 8.1 mph - N/A   Overcast
7:34 PM 26.6 °F 18.2 °F 15.8 °F 64% 29.71 in 10.0 mi NW 8.1 mph - N/A   Overcast
7:54 PM 24.8 °F 16.1 °F 15.8 °F 69% 29.72 in 10.0 mi WNW 8.1 mph - N/A   Mostly Cloudy
8:14 PM 24.8 °F 16.1 °F 15.8 °F 69% 29.72 in 10.0 mi WNW 8.1 mph - N/A   Scattered Clouds
8:34 PM 24.8 °F 17.9 °F 15.8 °F 69% 29.73 in 10.0 mi WNW 5.8 mph - N/A   Clear
8:54 PM 24.8 °F 16.9 °F 15.8 °F 69% 29.73 in 10.0 mi WNW 6.9 mph - N/A   Clear
9:14 PM 24.8 °F 19.1 °F 15.8 °F 69% 29.74 in 10.0 mi WNW 4.6 mph - N/A   Clear
9:35 PM 24.8 °F 17.9 °F 15.8 °F 69% 29.74 in 10.0 mi WNW 5.8 mph - N/A   Clear
9:54 PM 23.0 °F 15.8 °F 15.8 °F 74% 29.74 in 10.0 mi WNW 5.8 mph - N/A   Clear
10:14 PM 23.0 °F 15.8 °F 15.8 °F 74% 29.75 in 10.0 mi WNW 5.8 mph - N/A   Clear
10:35 PM 23.0 °F 13.9 °F 15.8 °F 74% 29.75 in 10.0 mi WNW 8.1 mph - N/A   Clear
10:54 PM 23.0 °F 14.7 °F 15.8 °F 74% 29.75 in 10.0 mi WNW 6.9 mph - N/A   Clear
11:14 PM 23.0 °F 13.1 °F 15.8 °F 74% 29.75 in 10.0 mi WNW 9.2 mph - N/A   Clear
11:34 PM 23.0 °F 13.9 °F 15.8 °F 74% 29.76 in 10.0 mi WNW 8.1 mph - N/A   Clear
11:54 PM 21.2 °F 11.7 °F 15.8 °F 80% 29.76 in 10.0 mi NW 8.1 mph - N/A   Clear